STARLINK-35739 (67053 NORAD) Tracking and Keplerian Element Data

This shows tracking and keplerian element data for the satellite.

Feedback or suggestion? Click here.




ElementValue
Catalog67053
NameSTARLINK-35739
Epoch Orbit130
Epoch Day354.25003472
Epoch Year2025
RAAN136.174
Inclination43.0005
Eccentricity0.0001742
Argument of Perigee263.5681
Mean Anonmoly10.002
Mean Motion15.89434079
Decay Rate-0.01476675
L11 67053U 25294Z 25354.25003472 -.01476675 00000+0 -56319-2 0 9998
L22 67053 43.0005 136.1740 0001742 263.5681 10.0020 15.89434079 1309



Live tracking and technical data element details for STARLINK-35739 (NORAD 67053). STARLINK-35739 can be tracked NOW for your location showing map with azimuth and elevation plus other details from your city location.







IsCatalogInMostPopularTable: catalog: 67053, numindb: 45
Update: records affected: 1



GetName: 67053 STARLINK-35739

Hit Count: updated at: Tue, 17 Feb 2026 12:02:06 GMT